Dodge City, KS

3:27 AM CST on February 25, 2017 (GMT -0600)
Dodge City Regional

Weather History for KDDC - March, 2013

Change the Weather History Date:

Sunday, March 17, 2013

  Actual Average Record
Temperature  
Mean Temperature 36 °F -  
Max Temperature 50 °F 58 °F 86 °F (1916)
Min Temperature 23 °F 33 °F -4 °F (1892)
Degree Days  
Heating Degree Days 28    
Moisture  
Dew Point 29 °F    
Average Humidity 74    
Maximum Humidity 93    
Minimum Humidity 47    
Precipitation  
Precipitation 0.00 in - - ()
Sea Level Pressure  
Sea Level Pressure 29.83 in    
Wind  
Wind Speed 10 mph (East)    
Max Wind Speed 22 mph    
Max Gust Speed 29 mph    
Visibility 8 miles    
Events      
Averages and records for this station are not official NWS values.
T = Trace of Precipitation, MM = Missing Value Source: NWS Daily Summary

Daily Weather History Graph

Daily Weather History Graph

Search for Another Location

Airport or City:

Trip Planner

Search our weather history database for the weather conditions in past years. The results will help you decide how hot, cold, wet, or windy it might be!

Date:

Astronomy

Mar. 17, 2013 Rise Set
Actual Time 7:47 AM CDT 7:49 PM CDT
Civil Twilight 7:21 AM CDT 8:15 PM CDT
Nautical Twilight 6:50 AM CDT 8:45 PM CDT
Astronomical Twilight 6:20 AM CDT 9:16 PM CDT
Moon 11:07 AM CDT (3/17) 12:53 AM CDT (3/17)
Length of Visible Light 12h 54m
Length of Day
12h 01m
Waxing Crescent, 31% of the Moon is Illuminated
Mar 17
Waxing Crescent
Mar 19
First Quarter
Mar 27
Full
Apr 2
Last Quarter
Apr 10
New

Hourly Weather History & Observations

Time (CDT) Temp. Windchill Dew Point Humidity Pressure Visibility Wind Dir Wind Speed Gust Speed Precip Events Conditions
12:52 AM 28.9 °F 18.2 °F 23.0 °F 78% 29.99 in 10.0 mi NE 13.8 mph - N/A   Overcast
1:52 AM 28.0 °F 18.6 °F 23.0 °F 81% 29.97 in 10.0 mi NE 10.4 mph - N/A   Clear
2:52 AM 28.0 °F - 23.0 °F 81% 29.96 in 10.0 mi Calm Calm - N/A   Partly Cloudy
3:52 AM 28.0 °F - 23.0 °F 81% 29.94 in 10.0 mi Calm Calm - N/A   Clear
4:52 AM 28.0 °F 21.7 °F 23.0 °F 81% 29.95 in 9.0 mi North 5.8 mph - N/A   Clear
5:52 AM 27.0 °F 19.5 °F 23.0 °F 85% 29.95 in 9.0 mi North 6.9 mph - N/A   Clear
6:52 AM 25.0 °F 17.1 °F 21.9 °F 88% 29.96 in 8.0 mi North 6.9 mph - N/A   Clear
7:52 AM 23.0 °F 15.8 °F 21.0 °F 92% 29.95 in 5.0 mi NNE 5.8 mph - N/A   Clear
8:03 AM 24.8 °F 17.9 °F 21.2 °F 86% 29.90 in 4.0 mi North 5.8 mph - N/A   Scattered Clouds
8:12 AM 24.8 °F 17.9 °F 23.0 °F 93% 29.90 in 4.0 mi NNE 5.8 mph - N/A   Mostly Cloudy
8:52 AM 28.0 °F 19.3 °F 25.0 °F 88% 29.94 in 3.0 mi NE 9.2 mph - N/A   Overcast
9:52 AM 30.9 °F 23.5 °F 27.0 °F 85% 29.94 in 6.0 mi NNE 8.1 mph - N/A   Overcast
10:35 AM 33.8 °F 30.8 °F 26.6 °F 75% 29.90 in 7.0 mi NE 3.5 mph - N/A   Overcast
10:52 AM 35.1 °F 31.0 °F 27.0 °F 72% 29.94 in 8.0 mi ENE 4.6 mph - N/A   Overcast
11:06 AM 35.6 °F 30.7 °F 26.6 °F 70% 29.89 in 8.0 mi ENE 5.8 mph - N/A   Overcast
11:52 AM 37.9 °F 32.7 °F 28.0 °F 68% 29.89 in 9.0 mi SE 6.9 mph - N/A   Overcast
12:52 PM 39.0 °F 32.8 °F 30.0 °F 70% 29.87 in 10.0 mi SSE 9.2 mph - N/A   Overcast
1:20 PM 39.2 °F 32.0 °F 30.2 °F 70% 29.81 in 10.0 mi SSE 11.5 mph - N/A   Overcast
1:52 PM 43.0 °F 35.7 °F 32.0 °F 65% 29.81 in 10.0 mi SE 15.0 mph - N/A   Overcast
2:52 PM 46.0 °F 40.2 °F 33.1 °F 61% 29.76 in 10.0 mi SSE 12.7 mph - N/A   Overcast
3:47 PM 48.2 °F - 33.8 °F 58% 29.68 in 10.0 mi SSE 15.0 mph 21.9 mph N/A   Scattered Clouds
3:52 PM 48.0 °F - 34.0 °F 58% 29.70 in 10.0 mi SSE 16.1 mph - N/A   Scattered Clouds
4:52 PM 48.9 °F - 34.0 °F 56% 29.65 in 10.0 mi SE 12.7 mph - N/A   Clear
5:52 PM 46.9 °F - 34.0 °F 61% 29.65 in 10.0 mi SSE 16.1 mph - N/A   Clear
6:52 PM 46.9 °F - 33.1 °F 59% 29.69 in 10.0 mi SSW 12.7 mph - N/A   Scattered Clouds
7:52 PM 45.0 °F 38.2 °F 34.0 °F 65% 29.61 in 10.0 mi SE 15.0 mph - 0.00 in   Clear
8:52 PM 42.1 °F 34.5 °F 33.1 °F 70% 29.63 in 10.0 mi SSE 15.0 mph - N/A   Clear
9:52 PM 39.0 °F 29.6 °F 34.0 °F 82% 29.63 in 9.0 mi SSE 18.4 mph 27.6 mph N/A   Clear
10:52 PM 37.9 °F 27.3 °F 34.0 °F 86% 29.75 in 7.0 mi North 21.9 mph 28.8 mph N/A   Mostly Cloudy
11:07 PM 37.4 °F 31.4 °F 33.8 °F 87% 29.72 in 7.0 mi NNE 8.1 mph - N/A   Overcast
11:17 PM 37.4 °F 32.8 °F 33.8 °F 87% 29.73 in 7.0 mi North 5.8 mph - N/A   Overcast
11:41 PM 35.6 °F 29.2 °F 32.0 °F 87% 29.72 in 6.0 mi NE 8.1 mph - N/A   Scattered Clouds
11:52 PM 36.0 °F 29.0 °F 33.1 °F 89% 29.73 in 6.0 mi ESE 9.2 mph - N/A   Partly Cloudy